,,Stat5,,Stat1,,Stat2,,Stat3,,Stat4,,Wind1,,Wind1,
time,status,PA1M_AVG,status,PR1M_SUM,status,RH1M_AVG,status,SR1M_AVG,status,TA1M_AVG,status,W1dAve1m,status,W1sAve1m,
2003-05-10, 00:00:00,VALID,917.14,VALID,0,VALID,95.8981,VALID,0.101885,VALID,19.9429,VALID,40,VALID,0.473479,
2003-05-10, 00:01:00,VALID,917.14,VALID,0,VALID,95.9527,VALID,0.101885,VALID,19.9203,VALID,40,VALID,0.354235,
2003-05-10, 00:02:00,VALID,917.132,VALID,0,VALID,96.188,VALID,0.152827,VALID,19.9039,VALID,40,VALID,0.34375,
2003-05-10, 00:03:00,VALID,917.116,VALID,0,VALID,96.4461,VALID,0.152827,VALID,19.9235,VALID,40,VALID,0.571615,
2003-05-10, 00:04:00,VALID,917.092,VALID,0,VALID,96.5669,VALID,0.169808,VALID,19.924,VALID,39,VALID,0.637946,
2003-05-10, 00:05:00,VALID,917.071,VALID,0,VALID,96.6636,VALID,0.152827,VALID,19.9166,VALID,29,VALID,0.66887,
2003-05-10, 00:06:00,VALID,917.045,VALID,0,VALID,96.5161,VALID,0.20377,VALID,19.8748,VALID,27,VALID,0.74399,
2003-05-10, 00:07:00,VALID,917.053,VALID,0,VALID,96.5962,VALID,0.152827,VALID,19.8459,VALID,27,VALID,0.21875,
2003-05-10, 00:08:00,VALID,917.041,VALID,0,VALID,96.7348,VALID,0.169808,VALID,19.8492,VALID,27,VALID,0.459961,
2003-05-10, 00:09:00,VALID,917.001,VALID,0,VALID,96.6013,VALID,0.169808,VALID,19.8233,VALID,27,VALID,0.178385,
2003-05-10, 00:10:00,VALID,916.977,VALID,0,VALID,96.778,VALID,0.135847,VALID,19.8405,VALID,27,VALID,0.151476,
2003-05-10, 00:11:00,VALID,916.951,VALID,0,VALID,96.8823,VALID,0.101885,VALID,19.8571,VALID,27,VALID,0.216639,
2003-05-10, 00:12:00,VALID,916.924,VALID,0,VALID,96.8963,VALID,0.0849042,VALID,19.8502,VALID,27,VALID,0.210732,
2003-05-10, 00:13:00,VALID,916.893,VALID,0,VALID,96.8861,VALID,0.118866,VALID,19.8534,VALID,27,VALID,0.202914,
2003-05-10, 00:14:00,VALID,916.882,VALID,0,VALID,96.8467,VALID,0.135847,VALID,19.834,VALID,27,VALID,0.129012,
2003-05-10, 00:15:00,VALID,916.873,VALID,0,VALID,96.717,VALID,0.0849042,VALID,19.8153,VALID,27,VALID,0.0502232,
2003-05-10, 00:16:00,VALID,916.849,VALID,0,VALID,96.5313,VALID,0.101885,VALID,19.7852,VALID,27,VALID,0,
2003-05-10, 00:17:00,VALID,916.852,VALID,0,VALID,96.6267,VALID,0.0679233,VALID,19.7989,VALID,27,VALID,0.0238598,
2003-05-10, 00:18:00,VALID,916.833,VALID,0,VALID,96.6102,VALID,0.101885,VALID,19.792,VALID,27,VALID,0,
2003-05-10, 00:19:00,VALID,916.83,VALID,0,VALID,96.5173,VALID,0.0849042,VALID,19.786,VALID,27,VALID,0.00371094,
2003-05-10, 00:20:00,VALID,916.819,VALID,0,VALID,96.4906,VALID,0.101885,VALID,19.7959,VALID,27,VALID,0.00431743,
2003-05-10, 00:21:00,VALID,916.784,VALID,0,VALID,96.4983,VALID,0.101885,VALID,19.7927,VALID,27,VALID,0.0505757,
2003-05-10, 00:22:00,VALID,916.774,VALID,0,VALID,96.7551,VALID,0.118866,VALID,19.828,VALID,27,VALID,0.028125,
2003-05-10, 00:23:00,VALID,916.745,VALID,0,VALID,96.6954,VALID,0.0509425,VALID,19.8283,VALID,27,VALID,0.0885417,
2003-05-10, 00:24:00,VALID,916.714,VALID,0,VALID,96.7984,VALID,0.135847,VALID,19.8218,VALID,27,VALID,0.374107,
2003-05-10, 00:25:00,VALID,916.675,VALID,0,VALID,96.9103,VALID,0.0849042,VALID,19.8119,VALID,27,VALID,0.443164,
2003-05-10, 00:26:00,VALID,916.64,VALID,0,VALID,96.9688,VALID,0.135847,VALID,19.7927,VALID,41,VALID,0.541233,
2003-05-10, 00:27:00,VALID,916.607,VALID,0,VALID,96.9535,VALID,0.0509425,VALID,19.7726,VALID,61,VALID,0.605469,
2003-05-10, 00:28:00,VALID,916.571,VALID,0,VALID,97.0234,VALID,0.135847,VALID,19.7474,VALID,66,VALID,0.369992,
2003-05-10, 00:29:00,VALID,916.56,VALID,0,VALID,97.1239,VALID,0.135847,VALID,19.7273,VALID,66,VALID,0.0351563,
2003-05-10, 00:30:00,VALID,916.533,VALID,0,VALID,97.2027,VALID,0.135847,VALID,19.741,VALID,66,VALID,0,
2003-05-10, 00:31:00,VALID,916.509,VALID,0,VALID,97.2727,VALID,0.135847,VALID,19.7477,VALID,66,VALID,0,
2003-05-10, 00:32:00,VALID,916.478,VALID,0,VALID,97.3337,VALID,0.118866,VALID,19.7469,VALID,66,VALID,0,
2003-05-10, 00:33:00,VALID,916.468,VALID,0,VALID,97.2727,VALID,0.118866,VALID,19.7437,VALID,66,VALID,0,
2003-05-10, 00:34:00,VALID,916.429,VALID,0,VALID,97.0222,VALID,0.0679233,VALID,19.7246,VALID,66,VALID,0.0240543,
2003-05-10, 00:35:00,VALID,916.389,VALID,0,VALID,96.8085,VALID,0.101885,VALID,19.7149,VALID,66,VALID,0.0128205,
2003-05-10, 00:36:00,VALID,916.351,VALID,0,VALID,96.736,VALID,0.118866,VALID,19.7377,VALID,66,VALID,0.119191,
2003-05-10, 00:37:00,VALID,916.3,VALID,0,VALID,96.4944,VALID,0.101885,VALID,19.7542,VALID,66,VALID,0.297297,
2003-05-10, 00:38:00,VALID,916.255,VALID,0,VALID,96.0646,VALID,0.0849042,VALID,19.744,VALID,66,VALID,0.431538,
2003-05-10, 00:39:00,VALID,916.208,VALID,0,VALID,95.8383,VALID,0.118866,VALID,19.786,VALID,61,VALID,0.467748,
2003-05-10, 00:40:00,VALID,916.171,VALID,0,VALID,95.9337,VALID,0.169808,VALID,19.8656,VALID,51,VALID,0.22476,
2003-05-10, 00:41:00,VALID,916.145,VALID,0,VALID,95.6679,VALID,0.169808,VALID,19.8987,VALID,51,VALID,0.28125,
2003-05-10, 00:42:00,VALID,916.123,VALID,0,VALID,95.603,VALID,0.169808,VALID,19.8785,VALID,51,VALID,0.381373,
2003-05-10, 00:43:00,VALID,916.087,VALID,0,VALID,95.5115,VALID,0.186789,VALID,19.8755,VALID,57,VALID,0.471917,
2003-05-10, 00:44:00,VALID,916.066,VALID,0,VALID,95.4441,VALID,0.237732,VALID,19.8651,VALID,65,VALID,0.359809,
2003-05-10, 00:45:00,VALID,916.034,VALID,0,VALID,95.3856,VALID,0.20377,VALID,19.875,VALID,72,VALID,0.164063,
2003-05-10, 00:46:00,VALID,916.009,VALID,0,VALID,95.467,VALID,0.20377,VALID,19.9106,VALID,72,VALID,0.00308388,
2003-05-10, 00:47:00,VALID,915.991,VALID,0,VALID,95.3627,VALID,0.220751,VALID,19.9275,VALID,72,VALID,0,
2003-05-10, 00:48:00,VALID,915.972,VALID,0,VALID,95.5153,VALID,0.152827,VALID,19.937,VALID,63,VALID,0.0910714,
2003-05-10, 00:49:00,VALID,915.946,VALID,0,VALID,95.6285,VALID,0.20377,VALID,19.9496,VALID,59,VALID,0.141741,
2003-05-10, 00:50:00,VALID,915.931,VALID,0,VALID,95.6717,VALID,0.186789,VALID,19.9499,VALID,58,VALID,0.389803,
2003-05-10, 00:51:00,VALID,915.894,VALID,0,VALID,95.7429,VALID,0.20377,VALID,19.9531,VALID,46,VALID,0.423878,
2003-05-10, 00:52:00,VALID,915.887,VALID,0,VALID,95.8014,VALID,0.186789,VALID,19.9305,VALID,31,VALID,0.22207,
2003-05-10, 00:53:00,VALID,915.878,VALID,0,VALID,95.9769,VALID,0.152827,VALID,19.9146,VALID,31,VALID,0.219367,
2003-05-10, 00:54:00,VALID,915.858,VALID,0,VALID,96.0201,VALID,0.169808,VALID,19.8852,VALID,31,VALID,0.238176,
2003-05-10, 00:55:00,VALID,915.845,VALID,0,VALID,95.94,VALID,0.169808,VALID,19.8594,VALID,31,VALID,0.16226,
2003-05-10, 00:56:00,VALID,915.838,VALID,0,VALID,95.9019,VALID,0.135847,VALID,19.8429,VALID,31,VALID,0,
2003-05-10, 00:57:00,VALID,915.829,VALID,0,VALID,95.8612,VALID,0.186789,VALID,19.8427,VALID,31,VALID,0.141627,
2003-05-10, 00:58:00,VALID,915.809,VALID,0,VALID,95.7887,VALID,0.237732,VALID,19.8621,VALID,29,VALID,0.291518,
2003-05-10, 00:59:00,VALID,915.784,VALID,0,VALID,95.7684,VALID,0.169808,VALID,19.8907,VALID,29,VALID,0.0326172,
2003-05-10, 01:00:00,VALID,915.751,VALID,0,VALID,95.6832,VALID,0.186789,VALID,19.9141,VALID,26,VALID,0.0196314,
2003-05-10, 01:01:00,VALID,915.73,VALID,0,VALID,95.7734,VALID,0.186789,VALID,19.93,VALID,19,VALID,0.163194,
2003-05-10, 01:02:00,VALID,915.714,VALID,0,VALID,95.4212,VALID,0.186789,VALID,19.9399,VALID,317,VALID,0.296453,
2003-05-10, 01:03:00,VALID,915.678,VALID,0,VALID,95.4288,VALID,0.220751,VALID,19.9914,VALID,312,VALID,0.0873766,
2003-05-10, 01:04:00,VALID,915.651,VALID,0,VALID,95.2902,VALID,0.186789,VALID,20.0175,VALID,312,VALID,0.0506757,
2003-05-10, 01:05:00,VALID,915.637,VALID,0,VALID,95.2762,VALID,0.20377,VALID,20.021,VALID,312,VALID,0.00211149,
2003-05-10, 01:06:00,VALID,915.617,VALID,0,VALID,95.3754,VALID,0.186789,VALID,20.0143,VALID,312,VALID,0,
2003-05-10, 01:07:00,VALID,915.593,VALID,0,VALID,95.364,VALID,0.152827,VALID,20.0046,VALID,312,VALID,0,
2003-05-10, 01:08:00,VALID,915.555,VALID,0,VALID,95.3894,VALID,0.152827,VALID,19.9949,VALID,312,VALID,0.0234375,
2003-05-10, 01:09:00,VALID,915.513,VALID,0,VALID,95.2343,VALID,0.169808,VALID,19.9755,VALID,304,VALID,0.296875,
2003-05-10, 01:10:00,VALID,915.505,VALID,0,VALID,95.0219,VALID,0.135847,VALID,19.9852,VALID,303,VALID,0.0662109,
2003-05-10, 01:11:00,VALID,915.476,VALID,0,VALID,94.9939,VALID,0.169808,VALID,20.0116,VALID,303,VALID,0,
2003-05-10, 01:12:00,VALID,915.451,VALID,0,VALID,95.1491,VALID,0.169808,VALID,19.9922,VALID,303,VALID,0,
2003-05-10, 01:13:00,VALID,915.423,VALID,0,VALID,95.3475,VALID,0.169808,VALID,19.9792,VALID,303,VALID,0.0369141,
2003-05-10, 01:14:00,VALID,915.407,VALID,0,VALID,95.514,VALID,0.169808,VALID,19.976,VALID,303,VALID,0.108373,
2003-05-10, 01:15:00,VALID,915.404,VALID,0,VALID,95.397,VALID,0.186789,VALID,19.9467,VALID,303,VALID,0.053125,
2003-05-10, 01:16:00,VALID,915.401,VALID,0,VALID,95.3398,VALID,0.118866,VALID,19.9181,VALID,303,VALID,0.160156,
2003-05-10, 01:17:00,VALID,915.406,VALID,0,VALID,95.4733,VALID,0.152827,VALID,19.8822,VALID,303,VALID,0.0703125,
2003-05-10, 01:18:00,VALID,915.411,VALID,0,VALID,95.72,VALID,0.135847,VALID,19.882,VALID,303,VALID,0,
2003-05-10, 01:19:00,VALID,915.427,VALID,0,VALID,95.6539,VALID,0.186789,VALID,19.8723,VALID,326,VALID,0.23137,
2003-05-10, 01:20:00,VALID,915.429,VALID,0,VALID,95.5267,VALID,0.186789,VALID,19.8526,VALID,51,VALID,0.482319,
2003-05-10, 01:21:00,VALID,915.413,VALID,0,VALID,95.4225,VALID,0.152827,VALID,19.8793,VALID,70,VALID,0.358758,
2003-05-10, 01:22:00,VALID,915.409,VALID,0,VALID,95.3678,VALID,0.169808,VALID,19.9016,VALID,70,VALID,0.114231,
2003-05-10, 01:23:00,VALID,915.407,VALID,0,VALID,95.3856,VALID,0.135847,VALID,19.9178,VALID,70,VALID,0.016059,
2003-05-10, 01:24:00,VALID,915.411,VALID,0,VALID,95.411,VALID,0.118866,VALID,19.9178,VALID,70,VALID,0,
2003-05-10, 01:25:00,VALID,915.389,VALID,0,VALID,95.392,VALID,0.135847,VALID,19.9086,VALID,70,VALID,0,
2003-05-10, 01:26:00,VALID,915.371,VALID,0,VALID,95.4238,VALID,0.101885,VALID,19.8795,VALID,70,VALID,0,
2003-05-10, 01:27:00,VALID,915.353,VALID,0,VALID,95.514,VALID,0.152827,VALID,19.8499,VALID,70,VALID,0.0604968,
2003-05-10, 01:28:00,VALID,915.334,VALID,0,VALID,95.5496,VALID,0.118866,VALID,19.8275,VALID,70,VALID,0.00253378,
2003-05-10, 01:29:00,VALID,915.318,VALID,0,VALID,95.617,VALID,0.152827,VALID,19.7855,VALID,70,VALID,0,
2003-05-10, 01:30:00,VALID,915.311,VALID,0,VALID,95.7366,VALID,0.169808,VALID,19.7564,VALID,70,VALID,0,
2003-05-10, 01:31:00,VALID,915.312,VALID,0,VALID,95.9197,VALID,0.118866,VALID,19.7141,VALID,57,VALID,0.203726,
2003-05-10, 01:32:00,VALID,915.307,VALID,0,VALID,96.0824,VALID,0.0849042,VALID,19.6947,VALID,31,VALID,0.247472,
2003-05-10, 01:33:00,VALID,915.299,VALID,0,VALID,96.1994,VALID,0.118866,VALID,19.646,VALID,41,VALID,0.529811,
2003-05-10, 01:34:00,VALID,915.286,VALID,0,VALID,96.2617,VALID,0.135847,VALID,19.6402,VALID,36,VALID,0.270059,
2003-05-10, 01:35:00,VALID,915.27,VALID,0,VALID,96.2032,VALID,0.135847,VALID,19.6072,VALID,63,VALID,0.399089,
2003-05-10, 01:36:00,VALID,915.246,VALID,0,VALID,96.0799,VALID,0.135847,VALID,19.6017,VALID,57,VALID,0.480903,
2003-05-10, 01:37:00,VALID,915.23,VALID,0,VALID,96.1702,VALID,0.169808,VALID,19.5527,VALID,57,VALID,0.582854,
2003-05-10, 01:38:00,VALID,915.219,VALID,0,VALID,96.2846,VALID,0.118866,VALID,19.504,VALID,52,VALID,0.827914,
2003-05-10, 01:39:00,VALID,915.188,VALID,0,VALID,96.441,VALID,0.118866,VALID,19.455,VALID,34,VALID,0.364062,
2003-05-10, 01:40:00,VALID,915.178,VALID,0,VALID,96.5707,VALID,0.169808,VALID,19.4756,VALID,16,VALID,0.427679,
2003-05-10, 01:41:00,VALID,915.163,VALID,0,VALID,96.5313,VALID,0.135847,VALID,19.4465,VALID,8,VALID,0.478413,
2003-05-10, 01:42:00,VALID,915.15,VALID,0,VALID,96.7081,VALID,0.135847,VALID,19.4395,VALID,355,VALID,0.507612,
2003-05-10, 01:43:00,VALID,915.147,VALID,0,VALID,96.7793,VALID,0.101885,VALID,19.4619,VALID,355,VALID,0.143164,
2003-05-10, 01:44:00,VALID,915.128,VALID,0,VALID,96.7233,VALID,0.135847,VALID,19.4848,VALID,315,VALID,0.232525,
2003-05-10, 01:45:00,VALID,915.105,VALID,0,VALID,96.8174,VALID,0.101885,VALID,19.5144,VALID,292,VALID,0.108742,
2003-05-10, 01:46:00,VALID,915.074,VALID,0,VALID,96.7462,VALID,0.118866,VALID,19.5271,VALID,292,VALID,0.0152244,
2003-05-10, 01:47:00,VALID,915.07,VALID,0,VALID,96.6369,VALID,0.0849042,VALID,19.5139,VALID,292,VALID,0,
2003-05-10, 01:48:00,VALID,915.067,VALID,0,VALID,96.5682,VALID,0.135847,VALID,19.501,VALID,292,VALID,0,
2003-05-10, 01:49:00,VALID,915.063,VALID,0,VALID,96.6254,VALID,0.118866,VALID,19.4689,VALID,289,VALID,0.482143,
2003-05-10, 01:50:00,VALID,915.067,VALID,0,VALID,97.0158,VALID,0.101885,VALID,19.5012,VALID,256,VALID,0.631445,
2003-05-10, 01:51:00,VALID,915.048,VALID,0,VALID,97.0298,VALID,0.135847,VALID,19.5306,VALID,252,VALID,0.115017,
2003-05-10, 01:52:00,VALID,915.044,VALID,0,VALID,96.8251,VALID,0.152827,VALID,19.5171,VALID,252,VALID,0,
2003-05-10, 01:53:00,VALID,915.011,VALID,0,VALID,96.7195,VALID,0.135847,VALID,19.5077,VALID,252,VALID,0,
2003-05-10, 01:54:00,VALID,914.988,VALID,0,VALID,96.5631,VALID,0.101885,VALID,19.501,VALID,252,VALID,0,
2003-05-10, 01:55:00,VALID,914.968,VALID,0,VALID,96.4677,VALID,0.135847,VALID,19.5079,VALID,252,VALID,0,
2003-05-10, 01:56:00,VALID,914.921,VALID,0,VALID,96.3787,VALID,0.152827,VALID,19.5047,VALID,252,VALID,0,
2003-05-10, 01:57:00,VALID,914.894,VALID,0,VALID,96.2745,VALID,0.0849042,VALID,19.5241,VALID,253,VALID,0.0569196,
2003-05-10, 01:58:00,VALID,914.865,VALID,0,VALID,95.8332,VALID,0.0679233,VALID,19.5467,VALID,254,VALID,0.122327,
2003-05-10, 01:59:00,VALID,914.837,VALID,0,VALID,95.5267,VALID,0.101885,VALID,19.5823,VALID,254,VALID,0.0118243,
2003-05-10, 02:00:00,VALID,914.819,VALID,0,VALID,95.2712,VALID,0.135847,VALID,19.6042,VALID,254,VALID,0,
2003-05-10, 02:01:00,VALID,914.798,VALID,0,VALID,95.1071,VALID,0.135847,VALID,19.5888,VALID,254,VALID,0,
2003-05-10, 02:02:00,VALID,914.797,VALID,0,VALID,95.1732,VALID,0.152827,VALID,19.5686,VALID,254,VALID,0,
2003-05-10, 02:03:00,VALID,914.79,VALID,0,VALID,95.308,VALID,0.169808,VALID,19.5915,VALID,254,VALID,0.169613,
2003-05-10, 02:04:00,VALID,914.774,VALID,0,VALID,94.9062,VALID,0.152827,VALID,19.6495,VALID,355,VALID,0.128711,
2003-05-10, 02:05:00,VALID,914.759,VALID,0,VALID,94.5082,VALID,0.118866,VALID,19.6499,VALID,1,VALID,0,
2003-05-10, 02:06:00,VALID,914.745,VALID,0,VALID,94.2818,VALID,0.169808,VALID,19.6596,VALID,321,VALID,0.357143,
2003-05-10, 02:07:00,VALID,914.742,VALID,0,VALID,94.1572,VALID,0.152827,VALID,19.7081,VALID,314,VALID,0.229687,
2003-05-10, 02:08:00,VALID,914.736,VALID,0,VALID,93.8317,VALID,0.169808,VALID,19.7599,VALID,315,VALID,0.0685764,
2003-05-10, 02:09:00,VALID,914.731,VALID,0,VALID,93.4896,VALID,0.118866,VALID,19.7604,VALID,320,VALID,0.0412326,
2003-05-10, 02:10:00,VALID,914.74,VALID,0,VALID,93.5545,VALID,0.220751,VALID,19.743,VALID,317,VALID,0.242989,
2003-05-10, 02:11:00,VALID,914.748,VALID,0,VALID,93.2175,VALID,0.20377,VALID,19.8208,VALID,313,VALID,0.294408,
2003-05-10, 02:12:00,VALID,914.784,VALID,0,VALID,92.6923,VALID,0.220751,VALID,19.7726,VALID,313,VALID,0.026727,
2003-05-10, 02:13:00,VALID,914.783,VALID,0,VALID,93.4095,VALID,0.20377,VALID,19.7047,VALID,313,VALID,0.135557,
2003-05-10, 02:14:00,VALID,914.78,VALID,0,VALID,93.852,VALID,0.169808,VALID,19.7629,VALID,313,VALID,0.0345052,
2003-05-10, 02:15:00,VALID,914.796,VALID,0,VALID,93.4668,VALID,0.186789,VALID,19.7823,VALID,313,VALID,0.000844595,
2003-05-10, 02:16:00,VALID,914.791,VALID,0,VALID,93.4337,VALID,0.135847,VALID,19.7144,VALID,313,VALID,0,
2003-05-10, 02:17:00,VALID,914.786,VALID,0,VALID,93.2239,VALID,0.152827,VALID,19.6365,VALID,313,VALID,0.036859,
2003-05-10, 02:18:00,VALID,914.764,VALID,0,VALID,93.847,VALID,0.169808,VALID,19.5562,VALID,313,VALID,0.203926,
2003-05-10, 02:19:00,VALID,914.766,VALID,0,VALID,94.3162,VALID,0.152827,VALID,19.4973,VALID,313,VALID,0.0926943,
2003-05-10, 02:20:00,VALID,914.781,VALID,0,VALID,94.4497,VALID,0.186789,VALID,19.44,VALID,313,VALID,0,
2003-05-10, 02:21:00,VALID,914.805,VALID,0,VALID,94.7282,VALID,0.186789,VALID,19.398,VALID,313,VALID,0,
2003-05-10, 02:22:00,VALID,914.789,VALID,0,VALID,95.2559,VALID,0.135847,VALID,19.3881,VALID,313,VALID,0.0154247,
2003-05-10, 02:23:00,VALID,914.798,VALID,0,VALID,95.5318,VALID,0.118866,VALID,19.3975,VALID,313,VALID,0.136029,
2003-05-10, 02:24:00,VALID,914.808,VALID,0,VALID,95.1923,VALID,0.135847,VALID,19.3943,VALID,313,VALID,0,
2003-05-10, 02:25:00,VALID,914.821,VALID,0,VALID,95.2699,VALID,0.152827,VALID,19.3948,VALID,313,VALID,0,
2003-05-10, 02:26:00,VALID,914.833,VALID,0,VALID,95.1326,VALID,0.169808,VALID,19.3913,VALID,353,VALID,0.138889,
2003-05-10, 02:27:00,VALID,914.839,VALID,0,VALID,95.0601,VALID,0.169808,VALID,19.3525,VALID,35,VALID,0.378906,
2003-05-10, 02:28:00,VALID,914.842,VALID,0,VALID,95.35,VALID,0.220751,VALID,19.3135,VALID,57,VALID,0.377673,
2003-05-10, 02:29:00,VALID,914.856,VALID,0,VALID,95.5789,VALID,0.152827,VALID,19.2876,VALID,76,VALID,0.391047,
2003-05-10, 02:30:00,VALID,914.867,VALID,0,VALID,95.6336,VALID,0.135847,VALID,19.268,VALID,76,VALID,0.196205,
2003-05-10, 02:31:00,VALID,914.875,VALID,0,VALID,95.6704,VALID,0.254712,VALID,19.2356,VALID,76,VALID,0.0819196,
2003-05-10, 02:32:00,VALID,914.883,VALID,0,VALID,95.5674,VALID,0.152827,VALID,19.168,VALID,76,VALID,0.0361842,
2003-05-10, 02:33:00,VALID,914.884,VALID,0,VALID,95.6755,VALID,0.186789,VALID,19.1033,VALID,76,VALID,0.403045,
2003-05-10, 02:34:00,VALID,914.888,VALID,0,VALID,96.1638,VALID,0.135847,VALID,19.0486,VALID,81,VALID,0.632617,
2003-05-10, 02:35:00,VALID,914.905,VALID,0,VALID,96.3978,VALID,0.152827,VALID,19.0228,VALID,97,VALID,0.261513,
2003-05-10, 02:36:00,VALID,914.91,VALID,0,VALID,96.5402,VALID,0.152827,VALID,19.0066,VALID,98,VALID,0,
2003-05-10, 02:37:00,VALID,914.909,VALID,0,VALID,96.6954,VALID,0.152827,VALID,18.9835,VALID,98,VALID,0,
2003-05-10, 02:38:00,VALID,914.902,VALID,0,VALID,96.8047,VALID,0.135847,VALID,18.9777,VALID,98,VALID,0,
2003-05-10, 02:39:00,VALID,914.901,VALID,0,VALID,96.9382,VALID,0.135847,VALID,18.9613,VALID,98,VALID,0,
2003-05-10, 02:40:00,VALID,914.911,VALID,0,VALID,97.0756,VALID,0.169808,VALID,18.9616,VALID,98,VALID,0,
2003-05-10, 02:41:00,VALID,914.913,VALID,0,VALID,97.1633,VALID,0.118866,VALID,18.9452,VALID,98,VALID,0,
2003-05-10, 02:42:00,VALID,914.905,VALID,0,VALID,97.0005,VALID,0.169808,VALID,18.9389,VALID,98,VALID,0.153429,
2003-05-10, 02:43:00,VALID,914.878,VALID,0,VALID,97.1035,VALID,0.20377,VALID,18.884,VALID,98,VALID,0.116536,
2003-05-10, 02:44:00,VALID,914.867,VALID,0,VALID,97.2765,VALID,0.186789,VALID,18.8907,VALID,98,VALID,0.00105574,
2003-05-10, 02:45:00,VALID,914.87,VALID,0,VALID,97.3935,VALID,0.152827,VALID,18.884,VALID,97,VALID,0.159951,
2003-05-10, 02:46:00,VALID,914.875,VALID,0,VALID,97.5143,VALID,0.169808,VALID,18.9064,VALID,89,VALID,0.280194,
2003-05-10, 02:47:00,VALID,914.893,VALID,0,VALID,97.3502,VALID,0.169808,VALID,18.9129,VALID,84,VALID,0.339527,
2003-05-10, 02:48:00,VALID,914.895,VALID,0,VALID,97.1442,VALID,0.169808,VALID,18.9034,VALID,79,VALID,0.260268,
2003-05-10, 02:49:00,VALID,914.9,VALID,0,VALID,97.1684,VALID,0.135847,VALID,18.8738,VALID,79,VALID,0.258635,
2003-05-10, 02:50:00,VALID,914.897,VALID,0,VALID,97.2994,VALID,0.152827,VALID,18.9066,VALID,7,VALID,0.371199,
2003-05-10, 02:51:00,VALID,914.911,VALID,0,VALID,97.4787,VALID,0.20377,VALID,18.9454,VALID,313,VALID,0.170351,
2003-05-10, 02:52:00,VALID,914.888,VALID,0,VALID,97.6898,VALID,0.169808,VALID,19.0396,VALID,306,VALID,0.23125,
2003-05-10, 02:53:00,VALID,914.861,VALID,0,VALID,97.3362,VALID,0.169808,VALID,19.0944,VALID,305,VALID,0.0577714,
2003-05-10, 02:54:00,VALID,914.849,VALID,0,VALID,96.8963,VALID,0.169808,VALID,19.0787,VALID,301,VALID,0.178043,
2003-05-10, 02:55:00,VALID,914.811,VALID,0,VALID,96.9573,VALID,0.169808,VALID,19.0976,VALID,250,VALID,0.203125,
2003-05-10, 02:56:00,VALID,914.789,VALID,0,VALID,96.8263,VALID,0.118866,VALID,19.0939,VALID,250,VALID,0.0280449,
2003-05-10, 02:57:00,VALID,914.791,VALID,0,VALID,96.7653,VALID,0.186789,VALID,19.113,VALID,263,VALID,0.453125,
2003-05-10, 02:58:00,VALID,914.794,VALID,0,VALID,96.9153,VALID,0.169808,VALID,19.2008,VALID,308,VALID,0.314258,
2003-05-10, 02:59:00,VALID,914.758,VALID,0,VALID,96.7399,VALID,0.169808,VALID,19.2595,VALID,321,VALID,0,
2003-05-10, 03:00:00,VALID,914.728,VALID,0,VALID,96.3266,VALID,0.118866,VALID,19.2789,VALID,321,VALID,0,
2003-05-10, 03:01:00,VALID,914.715,VALID,0,VALID,96.029,VALID,0.186789,VALID,19.259,VALID,326,VALID,0.0250401,
2003-05-10, 03:02:00,VALID,914.732,VALID,0,VALID,95.8612,VALID,0.169808,VALID,19.2495,VALID,33,VALID,0.530633,
2003-05-10, 03:03:00,VALID,914.72,VALID,0,VALID,95.7734,VALID,0.169808,VALID,19.214,VALID,52,VALID,0.552837,
2003-05-10, 03:04:00,VALID,914.742,VALID,0,VALID,96.2236,VALID,0.186789,VALID,19.2204,VALID,54,VALID,0.646326,
2003-05-10, 03:05:00,VALID,914.774,VALID,0,VALID,96.1829,VALID,0.135847,VALID,19.2627,VALID,55,VALID,0.529514,
2003-05-10, 03:06:00,VALID,914.811,VALID,0,VALID,95.9209,VALID,0.135847,VALID,19.2888,VALID,55,VALID,0.636613,
2003-05-10, 03:07:00,VALID,914.831,VALID,0,VALID,95.5293,VALID,0.169808,VALID,19.2657,VALID,53,VALID,0.663651,
2003-05-10, 03:08:00,VALID,914.837,VALID,0,VALID,95.5954,VALID,0.169808,VALID,19.2105,VALID,72,VALID,0.651843,
2003-05-10, 03:09:00,VALID,914.872,VALID,0,VALID,95.8281,VALID,0.186789,VALID,19.1844,VALID,79,VALID,0.258413,
2003-05-10, 03:10:00,VALID,914.904,VALID,0,VALID,95.9667,VALID,0.135847,VALID,19.1625,VALID,79,VALID,0.300465,
2003-05-10, 03:11:00,VALID,914.935,VALID,0,VALID,96.2808,VALID,0.135847,VALID,19.1394,VALID,77,VALID,0.477179,
2003-05-10, 03:12:00,VALID,914.957,VALID,0,VALID,96.5084,VALID,0.135847,VALID,19.1466,VALID,71,VALID,0.448518,
2003-05-10, 03:13:00,VALID,914.98,VALID,0,VALID,96.6737,VALID,0.101885,VALID,19.1622,VALID,84,VALID,0.715745,
2003-05-10, 03:14:00,VALID,914.975,VALID,0,VALID,96.6203,VALID,0.118866,VALID,19.2239,VALID,76,VALID,1.09467,
2003-05-10, 03:15:00,VALID,914.971,VALID,0,VALID,96.5237,VALID,0.118866,VALID,19.2655,VALID,56,VALID,1.06641,
2003-05-10, 03:16:00,VALID,914.986,VALID,0,VALID,96.0799,VALID,0.152827,VALID,19.3207,VALID,54,VALID,0.675042,
2003-05-10, 03:17:00,VALID,914.987,VALID,0,VALID,96.0049,VALID,0.152827,VALID,19.3371,VALID,52,VALID,0.612847,
2003-05-10, 03:18:00,VALID,914.977,VALID,0,VALID,95.9464,VALID,0.118866,VALID,19.3796,VALID,27,VALID,0.684462,
2003-05-10, 03:19:00,VALID,914.969,VALID,0,VALID,95.7938,VALID,0.186789,VALID,19.4012,VALID,34,VALID,0.52426,
2003-05-10, 03:20:00,VALID,914.961,VALID,0,VALID,95.7213,VALID,0.135847,VALID,19.4266,VALID,36,VALID,0.464527,
2003-05-10, 03:21:00,VALID,914.951,VALID,0,VALID,95.6425,VALID,0.152827,VALID,19.44,VALID,28,VALID,0.765625,
2003-05-10, 03:22:00,VALID,914.936,VALID,0,VALID,95.5458,VALID,0.169808,VALID,19.4398,VALID,26,VALID,0.617411,
2003-05-10, 03:23:00,VALID,914.942,VALID,0,VALID,95.6056,VALID,0.152827,VALID,19.4239,VALID,25,VALID,0.589638,
2003-05-10, 03:24:00,VALID,914.934,VALID,0,VALID,95.6895,VALID,0.169808,VALID,19.4303,VALID,21,VALID,0.541066,
2003-05-10, 03:25:00,VALID,914.925,VALID,0,VALID,95.7747,VALID,0.101885,VALID,19.4731,VALID,25,VALID,0.854102,
2003-05-10, 03:26:00,VALID,914.907,VALID,0,VALID,95.72,VALID,0.135847,VALID,19.5047,VALID,45,VALID,1.05572,
2003-05-10, 03:27:00,VALID,914.91,VALID,0,VALID,95.4365,VALID,0.101885,VALID,19.5758,VALID,42,VALID,0.814189,
2003-05-10, 03:28:00,VALID,914.925,VALID,0,VALID,94.9494,VALID,0.118866,VALID,19.6731,VALID,41,VALID,0.578926,
2003-05-10, 03:29:00,VALID,914.913,VALID,0,VALID,94.5095,VALID,0.0679233,VALID,19.7509,VALID,28,VALID,0.104768,
2003-05-10, 03:30:00,VALID,914.926,VALID,0,VALID,94.3467,VALID,0.118866,VALID,19.7984,VALID,16,VALID,0.213742,
2003-05-10, 03:31:00,VALID,914.916,VALID,0,VALID,94.2437,VALID,0.118866,VALID,19.8479,VALID,15,VALID,0,
2003-05-10, 03:32:00,VALID,914.912,VALID,0,VALID,94.0174,VALID,0.0679233,VALID,19.8579,VALID,15,VALID,0,
2003-05-10, 03:33:00,VALID,914.896,VALID,0,VALID,93.9436,VALID,0.101885,VALID,19.8735,VALID,15,VALID,0,
2003-05-10, 03:34:00,VALID,914.884,VALID,0,VALID,93.8533,VALID,0.169808,VALID,19.8997,VALID,15,VALID,0,
2003-05-10, 03:35:00,VALID,914.868,VALID,0,VALID,93.7058,VALID,0.118866,VALID,19.9186,VALID,15,VALID,0.00464527,
2003-05-10, 03:36:00,VALID,914.869,VALID,0,VALID,93.66,VALID,0.135847,VALID,19.9636,VALID,15,VALID,0.0125411,